Year,Month,Day,Hour,Minute,Value (Times are PST for temperature in C)
2018,07,17,00,00,17.90
2018,07,17,00,01,17.80
2018,07,17,00,02,17.80
2018,07,17,00,03,17.80
2018,07,17,00,04,17.80
2018,07,17,00,05,17.80
2018,07,17,00,06,17.70
2018,07,17,00,07,17.70
2018,07,17,00,08,17.70
2018,07,17,00,09,17.70
2018,07,17,00,10,17.70
2018,07,17,00,11,17.70
2018,07,17,00,12,17.70
2018,07,17,00,13,17.70
2018,07,17,00,14,17.70
2018,07,17,00,15,17.70
2018,07,17,00,16,17.70
2018,07,17,00,17,17.70
2018,07,17,00,18,17.60
2018,07,17,00,19,17.60
2018,07,17,00,20,17.60
2018,07,17,00,21,17.60
2018,07,17,00,22,17.60
2018,07,17,00,23,17.60
2018,07,17,00,24,17.60
2018,07,17,00,25,17.60
2018,07,17,00,26,17.50
2018,07,17,00,27,17.50
2018,07,17,00,28,17.50
2018,07,17,00,29,17.50
2018,07,17,00,30,17.50
2018,07,17,00,31,17.50
2018,07,17,00,32,17.40
2018,07,17,00,33,17.40
2018,07,17,00,34,17.40
2018,07,17,00,35,17.40
2018,07,17,00,36,17.40
2018,07,17,00,37,17.40
2018,07,17,00,38,17.40
2018,07,17,00,39,17.40
2018,07,17,00,40,17.40
2018,07,17,00,41,17.40
2018,07,17,00,42,17.40
2018,07,17,00,43,17.40
2018,07,17,00,44,17.40
2018,07,17,00,45,17.40
2018,07,17,00,46,17.30
2018,07,17,00,47,17.30
2018,07,17,00,48,17.30
2018,07,17,00,49,17.30
2018,07,17,00,50,17.30
2018,07,17,00,51,17.30
2018,07,17,00,52,17.30
2018,07,17,00,53,17.30
2018,07,17,00,54,17.30
2018,07,17,00,55,17.30
2018,07,17,00,56,17.30
2018,07,17,00,57,17.30
2018,07,17,00,58,17.30
2018,07,17,00,59,17.30
2018,07,17,01,00,17.30
2018,07,17,01,01,17.30
2018,07,17,01,02,17.30
2018,07,17,01,03,17.30
2018,07,17,01,04,17.30
2018,07,17,01,05,17.30
2018,07,17,01,06,17.30
2018,07,17,01,07,17.30
2018,07,17,01,08,17.30
2018,07,17,01,09,17.20
2018,07,17,01,10,17.20
2018,07,17,01,11,17.20
2018,07,17,01,12,17.20
2018,07,17,01,13,17.20
2018,07,17,01,14,17.20
2018,07,17,01,15,17.10
2018,07,17,01,16,17.10
2018,07,17,01,17,17.10
2018,07,17,01,18,17.10
2018,07,17,01,19,17.00
2018,07,17,01,20,17.00
2018,07,17,01,21,17.00
2018,07,17,01,22,17.00
2018,07,17,01,23,16.90
2018,07,17,01,24,16.90
2018,07,17,01,25,16.80
2018,07,17,01,26,16.80
2018,07,17,01,27,16.80
2018,07,17,01,28,16.80
2018,07,17,01,29,16.80
2018,07,17,01,30,16.80
2018,07,17,01,31,16.70
2018,07,17,01,32,16.70
2018,07,17,01,33,16.70
2018,07,17,01,34,16.70
2018,07,17,01,35,16.60
2018,07,17,01,36,16.60
2018,07,17,01,37,16.60
2018,07,17,01,38,16.50
2018,07,17,01,39,16.50
2018,07,17,01,40,16.40
2018,07,17,01,41,16.40
2018,07,17,01,42,16.40
2018,07,17,01,43,16.30
2018,07,17,01,44,16.30
2018,07,17,01,45,16.30
2018,07,17,01,46,16.20
2018,07,17,01,47,16.20
2018,07,17,01,48,16.20
2018,07,17,01,49,16.20
2018,07,17,01,50,16.10
2018,07,17,01,51,16.10
2018,07,17,01,52,16.00
2018,07,17,01,53,16.00
2018,07,17,01,54,16.00
2018,07,17,01,55,16.00
2018,07,17,01,56,15.90
2018,07,17,01,57,15.90
2018,07,17,01,58,15.90
2018,07,17,01,59,15.90
2018,07,17,02,00,15.90
2018,07,17,02,01,15.90
2018,07,17,02,02,15.90
2018,07,17,02,03,15.90
2018,07,17,02,04,15.90
2018,07,17,02,05,15.80
2018,07,17,02,06,15.80
2018,07,17,02,07,15.80
2018,07,17,02,08,15.80
2018,07,17,02,09,15.80
2018,07,17,02,10,15.80
2018,07,17,02,11,15.80
2018,07,17,02,12,15.70
2018,07,17,02,13,15.70
2018,07,17,02,14,15.70
2018,07,17,02,15,15.70
2018,07,17,02,16,15.70
2018,07,17,02,17,15.70
2018,07,17,02,18,15.70
2018,07,17,02,19,15.60
2018,07,17,02,20,15.60
2018,07,17,02,21,15.60
2018,07,17,02,22,15.60
2018,07,17,02,23,15.60
2018,07,17,02,24,15.50
2018,07,17,02,25,15.50
2018,07,17,02,26,15.50
2018,07,17,02,27,15.50
2018,07,17,02,28,15.40
2018,07,17,02,29,15.40
2018,07,17,02,30,15.40
2018,07,17,02,31,15.40
2018,07,17,02,32,15.40
2018,07,17,02,33,15.40
2018,07,17,02,34,15.40
2018,07,17,02,35,15.40
2018,07,17,02,36,15.40
2018,07,17,02,37,15.40
2018,07,17,02,38,15.40
2018,07,17,02,39,15.40
2018,07,17,02,40,15.40
2018,07,17,02,41,15.40
2018,07,17,02,42,15.40
2018,07,17,02,43,15.40
2018,07,17,02,44,15.40
2018,07,17,02,45,15.40
2018,07,17,02,46,15.40
2018,07,17,02,47,15.40
2018,07,17,02,48,15.30
2018,07,17,02,49,15.30
2018,07,17,02,50,15.30
2018,07,17,02,51,15.30
2018,07,17,02,52,15.30
2018,07,17,02,53,15.30
2018,07,17,02,54,15.30
2018,07,17,02,55,15.30
2018,07,17,02,56,15.30
2018,07,17,02,57,15.40
2018,07,17,02,58,15.40
2018,07,17,02,59,15.40
2018,07,17,03,00,15.40
2018,07,17,03,01,15.40
2018,07,17,03,02,15.40
2018,07,17,03,03,15.40
2018,07,17,03,04,15.30
2018,07,17,03,05,15.30
2018,07,17,03,06,15.30
2018,07,17,03,07,15.30
2018,07,17,03,08,15.30
2018,07,17,03,09,15.30
2018,07,17,03,10,15.30
2018,07,17,03,11,15.30
2018,07,17,03,12,15.30
2018,07,17,03,13,15.30
2018,07,17,03,14,15.30
2018,07,17,03,15,15.30
2018,07,17,03,16,15.30
2018,07,17,03,17,15.30
2018,07,17,03,18,15.30
2018,07,17,03,19,15.30
2018,07,17,03,20,15.30
2018,07,17,03,21,15.30
2018,07,17,03,22,15.30
2018,07,17,03,23,15.30
2018,07,17,03,24,15.30
2018,07,17,03,25,15.30
2018,07,17,03,26,15.30
2018,07,17,03,27,15.30
2018,07,17,03,28,15.20
2018,07,17,03,29,15.20
2018,07,17,03,30,15.20
2018,07,17,03,31,15.20
2018,07,17,03,32,15.20
2018,07,17,03,33,15.20
2018,07,17,03,34,15.10
2018,07,17,03,35,15.10
2018,07,17,03,36,15.10
2018,07,17,03,37,15.10
2018,07,17,03,38,15.10
2018,07,17,03,39,15.10
2018,07,17,03,40,15.10
2018,07,17,03,41,15.00
2018,07,17,03,42,15.00
2018,07,17,03,43,15.00
2018,07,17,03,44,15.00
2018,07,17,03,45,15.00
2018,07,17,03,46,14.90
2018,07,17,03,47,14.90
2018,07,17,03,48,14.90
2018,07,17,03,49,14.90
2018,07,17,03,50,14.90
2018,07,17,03,51,14.90
2018,07,17,03,52,14.90
2018,07,17,03,53,14.90
2018,07,17,03,54,14.90
2018,07,17,03,55,14.90
2018,07,17,03,56,14.90
2018,07,17,03,57,14.90
2018,07,17,03,58,15.00
2018,07,17,03,59,15.00
2018,07,17,04,00,15.00
2018,07,17,04,01,15.00
2018,07,17,04,02,15.00
2018,07,17,04,03,15.10
2018,07,17,04,04,15.10
2018,07,17,04,05,15.10
2018,07,17,04,06,15.10
2018,07,17,04,07,15.20
2018,07,17,04,08,15.20
2018,07,17,04,09,15.20
2018,07,17,04,10,15.20
2018,07,17,04,11,15.20
2018,07,17,04,12,15.20
2018,07,17,04,13,15.20
2018,07,17,04,14,15.20
2018,07,17,04,15,15.20
2018,07,17,04,16,15.30
2018,07,17,04,17,15.30
2018,07,17,04,18,15.30
2018,07,17,04,19,15.30
2018,07,17,04,20,15.20
2018,07,17,04,21,15.30
2018,07,17,04,22,15.20
2018,07,17,04,23,15.20
2018,07,17,04,24,15.20
2018,07,17,04,25,15.20
2018,07,17,04,26,15.20
2018,07,17,04,27,15.20
2018,07,17,04,28,15.10
2018,07,17,04,29,15.10
2018,07,17,04,30,15.10
2018,07,17,04,31,15.00
2018,07,17,04,32,15.00
2018,07,17,04,33,15.00
2018,07,17,04,34,14.90
2018,07,17,04,35,14.90
2018,07,17,04,36,14.90
2018,07,17,04,37,14.90
2018,07,17,04,38,14.80
2018,07,17,04,39,14.80
2018,07,17,04,40,14.70
2018,07,17,04,41,14.70
2018,07,17,04,42,14.70
2018,07,17,04,43,14.60
2018,07,17,04,44,14.60
2018,07,17,04,45,14.60
2018,07,17,04,46,14.60
2018,07,17,04,47,14.60
2018,07,17,04,48,14.50
2018,07,17,04,49,14.50
2018,07,17,04,50,14.50
2018,07,17,04,51,14.40
2018,07,17,04,52,14.40
2018,07,17,04,53,14.40
2018,07,17,04,54,14.40
2018,07,17,04,55,14.40
2018,07,17,04,56,14.30
2018,07,17,04,57,14.30
2018,07,17,04,58,14.30
2018,07,17,04,59,14.30
2018,07,17,05,00,14.30
2018,07,17,05,01,14.30
2018,07,17,05,02,14.30
2018,07,17,05,03,14.20
2018,07,17,05,04,14.20
2018,07,17,05,05,14.20
2018,07,17,05,06,14.20
2018,07,17,05,07,14.10
2018,07,17,05,08,14.10
2018,07,17,05,09,14.10
2018,07,17,05,10,14.00
2018,07,17,05,11,14.00
2018,07,17,05,12,14.00
2018,07,17,05,13,13.90
2018,07,17,05,14,13.90
2018,07,17,05,15,13.90
2018,07,17,05,16,13.90
2018,07,17,05,17,13.90
2018,07,17,05,18,13.90
2018,07,17,05,19,13.80
2018,07,17,05,20,13.80
2018,07,17,05,21,13.80
2018,07,17,05,22,13.80
2018,07,17,05,23,13.80
2018,07,17,05,24,13.80
2018,07,17,05,25,13.70
2018,07,17,05,26,13.70
2018,07,17,05,27,13.70
2018,07,17,05,28,13.70
2018,07,17,05,29,13.70
2018,07,17,05,30,13.60
2018,07,17,05,31,13.60
2018,07,17,05,32,13.60
2018,07,17,05,33,13.60
2018,07,17,05,34,13.60
2018,07,17,05,35,13.60
2018,07,17,05,36,13.50
2018,07,17,05,37,13.50
2018,07,17,05,38,13.50
2018,07,17,05,39,13.50
2018,07,17,05,40,13.50
2018,07,17,05,41,13.40
2018,07,17,05,42,13.40
2018,07,17,05,43,13.40
2018,07,17,05,44,13.40
2018,07,17,05,45,13.40
2018,07,17,05,46,13.30
2018,07,17,05,47,13.30
2018,07,17,05,48,13.30
2018,07,17,05,49,13.30
2018,07,17,05,50,13.30
2018,07,17,05,51,13.30
2018,07,17,05,52,13.30
2018,07,17,05,53,13.30
2018,07,17,05,54,13.30
2018,07,17,05,55,13.30
2018,07,17,05,56,13.30
2018,07,17,05,57,13.30
2018,07,17,05,58,13.30
2018,07,17,05,59,13.30
2018,07,17,06,00,13.40
2018,07,17,06,01,13.40
2018,07,17,06,02,13.40
2018,07,17,06,03,13.40
2018,07,17,06,04,13.40
2018,07,17,06,05,13.40
2018,07,17,06,06,13.40
2018,07,17,06,07,13.40
2018,07,17,06,08,13.40
2018,07,17,06,09,13.40
2018,07,17,06,10,13.40
2018,07,17,06,11,13.40
2018,07,17,06,12,13.50
2018,07,17,06,13,13.50
2018,07,17,06,14,13.50
2018,07,17,06,15,13.50
2018,07,17,06,16,13.60
2018,07,17,06,17,13.60
2018,07,17,06,18,13.60
2018,07,17,06,19,13.60
2018,07,17,06,20,13.70
2018,07,17,06,21,13.70
2018,07,17,06,22,13.80
2018,07,17,06,23,13.80
2018,07,17,06,24,13.90
2018,07,17,06,25,13.90
2018,07,17,06,26,14.00
2018,07,17,06,27,14.00
2018,07,17,06,28,14.10
2018,07,17,06,29,14.20
2018,07,17,06,30,14.30
2018,07,17,06,31,14.40
2018,07,17,06,32,14.50
2018,07,17,06,33,14.50
2018,07,17,06,34,14.60
2018,07,17,06,35,14.60
2018,07,17,06,36,14.70
2018,07,17,06,37,14.70
2018,07,17,06,38,14.70
2018,07,17,06,39,14.80
2018,07,17,06,40,14.80
2018,07,17,06,41,14.90
2018,07,17,06,42,14.90
2018,07,17,06,43,15.00
2018,07,17,06,44,15.10
2018,07,17,06,45,15.10
2018,07,17,06,46,15.20
2018,07,17,06,47,15.20
2018,07,17,06,48,15.30
2018,07,17,06,49,15.40
2018,07,17,06,50,15.40
2018,07,17,06,51,15.50
2018,07,17,06,52,15.60
2018,07,17,06,53,15.60
2018,07,17,06,54,15.60
2018,07,17,06,55,15.60
2018,07,17,06,56,15.70
2018,07,17,06,57,15.70
2018,07,17,06,58,15.70
2018,07,17,06,59,15.70
2018,07,17,07,00,15.80
2018,07,17,07,01,15.80
2018,07,17,07,02,15.80
2018,07,17,07,03,15.80
2018,07,17,07,04,15.80
2018,07,17,07,05,15.80
2018,07,17,07,06,15.90
2018,07,17,07,07,15.90
2018,07,17,07,08,15.90
2018,07,17,07,09,16.00
2018,07,17,07,10,16.00
2018,07,17,07,11,16.00
2018,07,17,07,12,16.10
2018,07,17,07,13,16.10
2018,07,17,07,14,16.10
2018,07,17,07,15,16.10
2018,07,17,07,16,16.20
2018,07,17,07,17,16.20
2018,07,17,07,18,16.30
2018,07,17,07,19,16.30
2018,07,17,07,20,16.40
2018,07,17,07,21,16.40
2018,07,17,07,22,16.50
2018,07,17,07,23,16.50
2018,07,17,07,24,16.50
2018,07,17,07,25,16.60
2018,07,17,07,26,16.60
2018,07,17,07,27,16.70
2018,07,17,07,28,16.70
2018,07,17,07,29,16.80
2018,07,17,07,30,16.80
2018,07,17,07,31,16.90
2018,07,17,07,32,17.00
2018,07,17,07,33,17.00
2018,07,17,07,34,17.10
2018,07,17,07,35,17.10
2018,07,17,07,36,17.20
2018,07,17,07,37,17.30
2018,07,17,07,38,17.40
2018,07,17,07,39,17.50
2018,07,17,07,40,17.60
2018,07,17,07,41,17.60
2018,07,17,07,42,17.60
2018,07,17,07,43,17.70
2018,07,17,07,44,17.70
2018,07,17,07,45,17.70
2018,07,17,07,46,17.80
2018,07,17,07,47,17.90
2018,07,17,07,48,17.90
2018,07,17,07,49,17.90
2018,07,17,07,50,17.90
2018,07,17,07,51,17.90
2018,07,17,07,52,17.90
2018,07,17,07,53,18.00
2018,07,17,07,54,18.40
2018,07,17,07,55,18.50
2018,07,17,07,56,18.60
2018,07,17,07,57,18.60
2018,07,17,07,58,18.70
2018,07,17,07,59,18.80
2018,07,17,08,00,18.80
2018,07,17,08,01,18.90
2018,07,17,08,02,18.90
2018,07,17,08,03,18.90
2018,07,17,08,04,18.90
2018,07,17,08,05,19.00
2018,07,17,08,06,19.00
2018,07,17,08,07,19.10
2018,07,17,08,08,19.10
2018,07,17,08,09,19.10
2018,07,17,08,10,19.20
2018,07,17,08,11,19.20
2018,07,17,08,12,19.30
2018,07,17,08,13,19.30
2018,07,17,08,14,19.40
2018,07,17,08,15,19.50
2018,07,17,08,16,19.60
2018,07,17,08,17,19.60
2018,07,17,08,18,19.70
2018,07,17,08,19,19.70
2018,07,17,08,20,19.80
2018,07,17,08,21,19.90
2018,07,17,08,22,19.90
2018,07,17,08,23,19.90
2018,07,17,08,24,19.90
2018,07,17,08,25,19.90
2018,07,17,08,26,19.90
2018,07,17,08,27,20.00
2018,07,17,08,28,20.00
2018,07,17,08,29,19.90
2018,07,17,08,30,19.90
2018,07,17,08,31,19.90
2018,07,17,08,32,19.90
2018,07,17,08,33,19.80
2018,07,17,08,34,19.80
2018,07,17,08,35,19.80
2018,07,17,08,36,19.70
2018,07,17,08,37,19.70
2018,07,17,08,38,19.60
2018,07,17,08,39,19.60
2018,07,17,08,40,19.50
2018,07,17,08,41,19.40
2018,07,17,08,42,19.40
2018,07,17,08,43,19.40
2018,07,17,08,44,19.40
2018,07,17,08,45,19.40
2018,07,17,08,46,19.40
2018,07,17,08,47,19.40
2018,07,17,08,48,19.50
2018,07,17,08,49,19.60
2018,07,17,08,50,19.70
2018,07,17,08,51,19.80
2018,07,17,08,52,19.90
2018,07,17,08,53,19.90
2018,07,17,08,54,19.90
2018,07,17,08,55,20.00
2018,07,17,08,56,20.10
2018,07,17,08,57,20.10
2018,07,17,08,58,20.10
2018,07,17,08,59,20.10
2018,07,17,09,00,20.10
2018,07,17,09,01,20.10
2018,07,17,09,02,20.10
2018,07,17,09,03,20.10
2018,07,17,09,04,20.00
2018,07,17,09,05,20.00
2018,07,17,09,06,19.90
2018,07,17,09,07,19.90
2018,07,17,09,08,19.80
2018,07,17,09,09,19.90
2018,07,17,09,10,19.90
2018,07,17,09,11,19.90
2018,07,17,09,12,20.00
2018,07,17,09,13,20.10
2018,07,17,09,14,20.10
2018,07,17,09,15,20.20
2018,07,17,09,16,20.10
2018,07,17,09,17,20.10
2018,07,17,09,18,20.10
2018,07,17,09,19,20.10
2018,07,17,09,20,20.20
2018,07,17,09,21,20.20
2018,07,17,09,22,20.20
2018,07,17,09,23,20.20
2018,07,17,09,24,20.30
2018,07,17,09,25,20.30
2018,07,17,09,26,20.40
2018,07,17,09,27,20.40
2018,07,17,09,28,20.40
2018,07,17,09,29,20.40
2018,07,17,09,30,20.50
2018,07,17,09,31,20.50
2018,07,17,09,32,20.50
2018,07,17,09,33,20.40
2018,07,17,09,34,20.40
2018,07,17,09,35,20.40
2018,07,17,09,36,20.40
2018,07,17,09,37,20.40
2018,07,17,09,38,20.50
2018,07,17,09,39,20.40
2018,07,17,09,40,20.40
2018,07,17,09,41,20.40
2018,07,17,09,42,20.30
2018,07,17,09,43,20.30
2018,07,17,09,44,20.20
2018,07,17,09,45,20.10
2018,07,17,09,46,20.10
2018,07,17,09,47,20.00
2018,07,17,09,48,20.00
2018,07,17,09,49,20.00
2018,07,17,09,50,20.00
2018,07,17,09,51,20.10
2018,07,17,09,52,20.20
2018,07,17,09,53,20.40
2018,07,17,09,54,20.40
2018,07,17,09,55,20.50
2018,07,17,09,56,20.50
2018,07,17,09,57,20.60
2018,07,17,09,58,20.60
2018,07,17,09,59,20.60
2018,07,17,10,00,20.60
2018,07,17,10,01,20.50
2018,07,17,10,02,20.50
2018,07,17,10,03,20.40
2018,07,17,10,04,20.40
2018,07,17,10,05,20.40
2018,07,17,10,06,20.40
2018,07,17,10,07,20.40
2018,07,17,10,08,20.40
2018,07,17,10,09,20.40
2018,07,17,10,10,20.30
2018,07,17,10,11,20.20
2018,07,17,10,12,20.20
2018,07,17,10,13,20.20
2018,07,17,10,14,20.10
2018,07,17,10,15,20.10
2018,07,17,10,16,20.00
2018,07,17,10,17,20.00
2018,07,17,10,18,19.90
2018,07,17,10,19,19.90
2018,07,17,10,20,19.90
2018,07,17,10,21,19.90
2018,07,17,10,22,19.90
2018,07,17,10,23,19.90
2018,07,17,10,24,19.90
2018,07,17,10,25,19.90
2018,07,17,10,26,19.90
2018,07,17,10,27,20.00
2018,07,17,10,28,20.00
2018,07,17,10,29,20.10
2018,07,17,10,30,20.10
2018,07,17,10,31,20.10
2018,07,17,10,32,20.10
2018,07,17,10,33,20.20
2018,07,17,10,34,20.20
2018,07,17,10,35,20.30
2018,07,17,10,36,20.30
2018,07,17,10,37,20.30
2018,07,17,10,38,20.30
2018,07,17,10,39,20.40
2018,07,17,10,40,20.50
2018,07,17,10,41,20.60
2018,07,17,10,42,20.70
2018,07,17,10,43,20.70
2018,07,17,10,44,20.60
2018,07,17,10,45,20.60
2018,07,17,10,46,20.70
2018,07,17,10,47,20.70
2018,07,17,10,48,20.70
2018,07,17,10,49,20.70
2018,07,17,10,50,20.80
2018,07,17,10,51,20.80
2018,07,17,10,52,20.80
2018,07,17,10,53,20.90
2018,07,17,10,54,20.90
2018,07,17,10,55,21.00
2018,07,17,10,56,21.00
2018,07,17,10,57,21.10
2018,07,17,10,58,21.10
2018,07,17,10,59,21.10
2018,07,17,11,00,21.10
2018,07,17,11,01,21.10
2018,07,17,11,02,21.10
2018,07,17,11,03,21.20
2018,07,17,11,04,21.20
2018,07,17,11,05,21.20
2018,07,17,11,06,21.10
2018,07,17,11,07,21.00
2018,07,17,11,08,20.90
2018,07,17,11,09,20.80
2018,07,17,11,10,20.90
2018,07,17,11,11,20.90
2018,07,17,11,12,21.00
2018,07,17,11,13,20.90
2018,07,17,11,14,20.90
2018,07,17,11,15,20.90
2018,07,17,11,16,20.80
2018,07,17,11,17,20.80
2018,07,17,11,18,20.80
2018,07,17,11,19,20.80
2018,07,17,11,20,20.80
2018,07,17,11,21,20.80
2018,07,17,11,22,20.80
2018,07,17,11,23,20.80
2018,07,17,11,24,20.80
2018,07,17,11,25,20.80
2018,07,17,11,26,20.80
2018,07,17,11,27,20.90
2018,07,17,11,28,20.90
2018,07,17,11,29,21.00
2018,07,17,11,30,21.10
2018,07,17,11,31,21.10
2018,07,17,11,32,21.10
2018,07,17,11,33,21.10
2018,07,17,11,34,21.00
2018,07,17,11,35,21.10
2018,07,17,11,36,21.10
2018,07,17,11,37,21.20
2018,07,17,11,38,21.20
2018,07,17,11,39,21.20
2018,07,17,11,40,21.20
2018,07,17,11,41,21.20
2018,07,17,11,42,21.20
2018,07,17,11,43,21.20
2018,07,17,11,44,21.20
2018,07,17,11,45,21.30
2018,07,17,11,46,21.40
2018,07,17,11,47,21.50
2018,07,17,11,48,21.50
2018,07,17,11,49,21.50
2018,07,17,11,50,21.50
2018,07,17,11,51,21.60
2018,07,17,11,52,21.60
2018,07,17,11,53,21.60
2018,07,17,11,54,21.50
2018,07,17,11,55,21.50
2018,07,17,11,56,21.50
2018,07,17,11,57,21.60
2018,07,17,11,58,21.70
2018,07,17,11,59,21.70
2018,07,17,12,00,21.70
2018,07,17,12,01,21.80
2018,07,17,12,02,21.80
2018,07,17,12,03,21.80
2018,07,17,12,04,21.80
2018,07,17,12,05,21.80
2018,07,17,12,06,21.90
2018,07,17,12,07,21.90
2018,07,17,12,08,21.90
2018,07,17,12,09,21.90
2018,07,17,12,10,21.90
2018,07,17,12,11,21.80
2018,07,17,12,12,21.80
2018,07,17,12,13,21.80
2018,07,17,12,14,21.90
2018,07,17,12,15,22.00
2018,07,17,12,16,22.10
2018,07,17,12,17,22.20
2018,07,17,12,18,22.20
2018,07,17,12,19,22.30
2018,07,17,12,20,22.30
2018,07,17,12,21,22.30
2018,07,17,12,22,22.40
2018,07,17,12,23,22.40
2018,07,17,12,24,22.50
2018,07,17,12,25,22.60
2018,07,17,12,26,22.70
2018,07,17,12,27,22.80
2018,07,17,12,28,22.80
2018,07,17,12,29,22.90
2018,07,17,12,30,22.80
2018,07,17,12,31,22.80
2018,07,17,12,32,22.80
2018,07,17,12,33,22.80
2018,07,17,12,34,22.80
2018,07,17,12,35,22.80
2018,07,17,12,36,22.90
2018,07,17,12,37,22.90
2018,07,17,12,38,22.90
2018,07,17,12,39,23.00
2018,07,17,12,40,23.00
2018,07,17,12,41,23.10
2018,07,17,12,42,23.20
2018,07,17,12,43,23.20
2018,07,17,12,44,23.30
2018,07,17,12,45,23.40
2018,07,17,12,46,23.40
2018,07,17,12,47,23.50
2018,07,17,12,48,23.50
2018,07,17,12,49,23.60
2018,07,17,12,50,23.80
2018,07,17,12,51,23.80
2018,07,17,12,52,23.90
2018,07,17,12,53,24.00
2018,07,17,12,54,24.00
2018,07,17,12,55,24.00
2018,07,17,12,56,24.00
2018,07,17,12,57,24.00
2018,07,17,12,58,24.10
2018,07,17,12,59,24.10
2018,07,17,13,00,24.20
2018,07,17,13,01,24.10
2018,07,17,13,02,24.10
2018,07,17,13,03,24.00
2018,07,17,13,04,23.90
2018,07,17,13,05,23.90
2018,07,17,13,06,23.90
2018,07,17,13,07,23.90
2018,07,17,13,08,24.00
2018,07,17,13,09,24.10
2018,07,17,13,10,24.10
2018,07,17,13,11,24.10
2018,07,17,13,12,24.10
2018,07,17,13,13,24.00
2018,07,17,13,14,23.90
2018,07,17,13,15,23.90
2018,07,17,13,16,24.00
2018,07,17,13,17,24.00
2018,07,17,13,18,24.10
2018,07,17,13,19,24.10
2018,07,17,13,20,24.00
2018,07,17,13,21,24.00
2018,07,17,13,22,24.00
2018,07,17,13,23,24.00
2018,07,17,13,24,24.00
2018,07,17,13,25,24.00
2018,07,17,13,26,24.00
2018,07,17,13,27,24.00
2018,07,17,13,28,24.10
2018,07,17,13,29,24.20
2018,07,17,13,30,24.20
2018,07,17,13,31,24.10
2018,07,17,13,32,24.10
2018,07,17,13,33,24.20
2018,07,17,13,34,24.20
2018,07,17,13,35,24.30
2018,07,17,13,36,24.30
2018,07,17,13,37,24.40
2018,07,17,13,38,24.30
2018,07,17,13,39,24.30
2018,07,17,13,40,24.30
2018,07,17,13,41,24.30
2018,07,17,13,42,24.30
2018,07,17,13,43,24.30
2018,07,17,13,44,24.30
2018,07,17,13,45,24.30
2018,07,17,13,46,24.30
2018,07,17,13,47,24.30
2018,07,17,13,48,24.20
2018,07,17,13,49,24.20
2018,07,17,13,50,24.10
2018,07,17,13,51,24.10
2018,07,17,13,52,24.20
2018,07,17,13,53,24.40
2018,07,17,13,54,24.50
2018,07,17,13,55,24.60
2018,07,17,13,56,24.70
2018,07,17,13,57,24.80
2018,07,17,13,58,24.80
2018,07,17,13,59,24.80
2018,07,17,14,00,24.90
2018,07,17,14,01,24.90
2018,07,17,14,02,24.80
2018,07,17,14,03,24.80
2018,07,17,14,04,24.70
2018,07,17,14,05,24.70
2018,07,17,14,06,24.60
2018,07,17,14,07,24.60
2018,07,17,14,08,24.50
2018,07,17,14,09,24.40
2018,07,17,14,10,24.30
2018,07,17,14,11,24.20
2018,07,17,14,12,24.20
2018,07,17,14,13,24.20
2018,07,17,14,14,24.20
2018,07,17,14,15,24.30
2018,07,17,14,16,24.30
2018,07,17,14,17,24.40
2018,07,17,14,18,24.40
2018,07,17,14,19,24.50
2018,07,17,14,20,24.50
2018,07,17,14,21,24.50
2018,07,17,14,22,24.60
2018,07,17,14,23,24.70
2018,07,17,14,24,24.80
2018,07,17,14,25,24.80
2018,07,17,14,26,24.90
2018,07,17,14,27,25.00
2018,07,17,14,28,25.00
2018,07,17,14,29,25.10
2018,07,17,14,30,25.10
2018,07,17,14,31,25.00
2018,07,17,14,32,25.00
2018,07,17,14,33,24.90
2018,07,17,14,34,24.80
2018,07,17,14,35,24.80
2018,07,17,14,36,24.70
2018,07,17,14,37,24.70
2018,07,17,14,38,24.70
2018,07,17,14,39,24.70
2018,07,17,14,40,24.80
2018,07,17,14,41,24.80
2018,07,17,14,42,24.80
2018,07,17,14,43,24.80
2018,07,17,14,44,24.80
2018,07,17,14,45,24.80
2018,07,17,14,46,24.80
2018,07,17,14,47,24.80
2018,07,17,14,48,24.80
2018,07,17,14,49,24.80
2018,07,17,14,50,24.80
2018,07,17,14,51,24.70
2018,07,17,14,52,24.70
2018,07,17,14,53,24.60
2018,07,17,14,54,24.60
2018,07,17,14,55,24.50
2018,07,17,14,56,24.50
2018,07,17,14,57,24.50
2018,07,17,14,58,24.40
2018,07,17,14,59,24.40
2018,07,17,15,00,24.40
2018,07,17,15,01,24.40
2018,07,17,15,02,24.60
2018,07,17,15,03,24.70
2018,07,17,15,04,24.90
2018,07,17,15,05,24.90
2018,07,17,15,06,24.90
2018,07,17,15,07,24.90
2018,07,17,15,08,24.90
2018,07,17,15,09,24.90
2018,07,17,15,10,24.90
2018,07,17,15,11,24.80
2018,07,17,15,12,24.80
2018,07,17,15,13,24.90
2018,07,17,15,14,25.00
2018,07,17,15,15,25.00
2018,07,17,15,16,25.10
2018,07,17,15,17,25.20
2018,07,17,15,18,25.30
2018,07,17,15,19,25.30
2018,07,17,15,20,25.30
2018,07,17,15,21,25.40
2018,07,17,15,22,25.40
2018,07,17,15,23,25.50
2018,07,17,15,24,25.50
2018,07,17,15,25,25.40
2018,07,17,15,26,25.40
2018,07,17,15,27,25.40
2018,07,17,15,28,25.40
2018,07,17,15,29,25.40
2018,07,17,15,30,25.40
2018,07,17,15,31,25.40
2018,07,17,15,32,25.40
2018,07,17,15,33,25.30
2018,07,17,15,34,25.30
2018,07,17,15,35,25.30
2018,07,17,15,36,25.40
2018,07,17,15,37,25.40
2018,07,17,15,38,25.50
2018,07,17,15,39,25.50
2018,07,17,15,40,25.60
2018,07,17,15,41,25.60
2018,07,17,15,42,25.60
2018,07,17,15,43,25.50
2018,07,17,15,44,25.50
2018,07,17,15,45,25.40
2018,07,17,15,46,25.40
2018,07,17,15,47,25.30
2018,07,17,15,48,25.30
2018,07,17,15,49,25.30
2018,07,17,15,50,25.40
2018,07,17,15,51,25.40
2018,07,17,15,52,25.40
2018,07,17,15,53,25.40
2018,07,17,15,54,25.40
2018,07,17,15,55,25.30
2018,07,17,15,56,25.20
2018,07,17,15,57,25.20
2018,07,17,15,58,25.20
2018,07,17,15,59,25.20
2018,07,17,16,00,25.20
2018,07,17,16,01,25.30
2018,07,17,16,02,25.40
2018,07,17,16,03,25.50
2018,07,17,16,04,25.50
2018,07,17,16,05,25.50
2018,07,17,16,06,25.50
2018,07,17,16,07,25.50
2018,07,17,16,08,25.50
2018,07,17,16,09,25.50
2018,07,17,16,10,25.60
2018,07,17,16,11,25.60
2018,07,17,16,12,25.70
2018,07,17,16,13,25.80
2018,07,17,16,14,25.90
2018,07,17,16,15,26.00
2018,07,17,16,16,26.00
2018,07,17,16,17,26.10
2018,07,17,16,18,26.00
2018,07,17,16,19,26.00
2018,07,17,16,20,25.90
2018,07,17,16,21,25.80
2018,07,17,16,22,25.80
2018,07,17,16,23,25.70
2018,07,17,16,24,25.70
2018,07,17,16,25,25.60
2018,07,17,16,26,25.60
2018,07,17,16,27,25.50
2018,07,17,16,28,25.60
2018,07,17,16,29,25.70
2018,07,17,16,30,25.80
2018,07,17,16,31,25.80
2018,07,17,16,32,25.80
2018,07,17,16,33,25.90
2018,07,17,16,34,25.90
2018,07,17,16,35,25.90
2018,07,17,16,36,26.00
2018,07,17,16,37,26.00
2018,07,17,16,38,26.20
2018,07,17,16,39,26.30
2018,07,17,16,40,26.30
2018,07,17,16,41,26.40
2018,07,17,16,42,26.50
2018,07,17,16,43,26.60
2018,07,17,16,44,26.70
2018,07,17,16,45,26.70
2018,07,17,16,46,26.70
2018,07,17,16,47,26.70
2018,07,17,16,48,26.70
2018,07,17,16,49,26.80
2018,07,17,16,50,26.80
2018,07,17,16,51,26.80
2018,07,17,16,52,26.80
2018,07,17,16,53,26.80
2018,07,17,16,54,26.80
2018,07,17,16,55,26.70
2018,07,17,16,56,26.70
2018,07,17,16,57,26.60
2018,07,17,16,58,26.60
2018,07,17,16,59,26.60
2018,07,17,17,00,26.50
2018,07,17,17,01,26.50
2018,07,17,17,02,26.40
2018,07,17,17,03,26.40
2018,07,17,17,04,26.40
2018,07,17,17,05,26.40
2018,07,17,17,06,26.50
2018,07,17,17,07,26.50
2018,07,17,17,08,26.50
2018,07,17,17,09,26.60
2018,07,17,17,10,26.60
2018,07,17,17,11,26.60
2018,07,17,17,12,26.60
2018,07,17,17,13,26.50
2018,07,17,17,14,26.50
2018,07,17,17,15,26.40
2018,07,17,17,16,26.40
2018,07,17,17,17,26.40
2018,07,17,17,18,26.40
2018,07,17,17,19,26.40